Regional Weather Roundup
Issued by NWS

Home | Current Version | Previous Version | Graphics & Text | Print | Product List | Glossary On
Versions: 1 2 3 4 5 6 7 8 9 10 11 12 13 14 15 16 17 18 19 20 21 22 23 24 25 26 27 28 29 30 31 32 33 34 35 36 37 38 39 40 41 42 43 44 45 46 47 48 49 50
000
ASUS43 KFSD 280902
RWRSD

WEATHER ROUNDUP FOR SOUTH DAKOTA
NATIONAL WEATHER SERVICE SIOUX FALLS SD
300 AM CST TUE FEB 28 2017

NOTE: "FAIR" INDICATES FEW OR NO CLOUDS BELOW 12,000 FEET WITH NO
SIGNIFICANT WEATHER AND/OR OBSTRUCTIONS TO VISIBILITY.


SDZ001>005-009-010-012>017-281000-
NORTHWEST AND NORTH CENTRAL SOUTH DAKOTA

CITY           SKY/WX    TMP DP  RH WIND       PRES   REMARKS
BUFFALO          N/A     19  17  92 NE14      29.61F WCI   6
FAITH            N/A     21  21 100 NE13      29.71S WCI   9
MOBRIDGE       CLOUDY    26  21  81 NE14      29.75F WCI  14
$$

SDZ012>016-024>037-041>051-057-063-072>074-281000-
SOUTHWEST AND SOUTH CENTRAL SOUTH DAKOTA

CITY           SKY/WX    TMP DP  RH WIND       PRES   REMARKS
RAPID CTY ARPT CLOUDY    25  22  88 N6        29.67S WCI  18
PIERRE         CLOUDY    30  27  88 NE15      29.73R WCI  19
CUSTER         CLOUDY    21  14  74 SW6       29.57F WCI  13
ELLSWORTH AFB  CLOUDY    24  24  99 NE3       29.67
PHILIP         CLOUDY    27  26  96 NE5       29.73F WCI  22
PINE RIDGE     CLOUDY    31  31 100 SW8       29.69S WCI  23
SPEARFISH      CLOUDY    21  21 100 NE5       29.63F FOG     WCI  15
WINNER         PTSUNNY   30  26  85 NW8       29.68F WCI  22
$$

SDZ004>011-016>023-039-040-281000-
NORTHEAST SOUTH DAKOTA

CITY           SKY/WX    TMP DP  RH WIND       PRES   REMARKS
ABERDEEN       LGT SNOW  24  20  84 N15       29.79F FOG     WCI  11
WATERTOWN      CLOUDY    29  27  92 NE13      29.72S WCI  19
BROOKINGS      CLOUDY    33  29  85 NE8       29.68F WCI  26
SISSETON         N/A     25  24  96 N14       29.79F WCI  13
$$

SDZ017-020-022-023-036>040-048>070-281000-
SOUTHEAST SOUTH DAKOTA

CITY           SKY/WX    TMP DP  RH WIND       PRES   REMARKS
SIOUX FALLS    CLOUDY    33  30  88 NE6       29.65F WCI  28
HURON          CLOUDY    33  29  85 N13       29.70F WCI  24
CHAMBERLAIN    MOCLDY    35  32  90 N8G16     29.67F WCI  28
MITCHELL       CLOUDY    33  30  88 N8        29.69S WCI  26
YANKTON        CLOUDY    34  27  75 CALM      29.64F
$$

ABBREVIATIONS USED IN REMARKS
   TC - TEMPERATURE IN CELSIUS
  WCI - WIND CHILL INDEX
   HX - HEAT INDEX
  VSB - VISIBILITY





USA.gov is the U.S. government's official web portal to all federal, state and local government web resources and services.